[[{"header":{"parameterUnit":"m.s-1","parameterCategory":1,"la1":30.2991,"la2":30.254,"lo1":-89.0895,"lo2":-89.0444,"dy":0.0017,"dx":0.0017,"nx":28,"ny":28,"refTime":"2024-12-04T09:00:00:Z","depth":0,"parameterNumber":2,"parameterNumberName":"U-component_of_WINDS"},"data":[0,0,0,0,0,0,0,0,0,0,0,0,0,0,0,0,0,0,0,0,0,0,0,0,0,0,0,0,0,0,0,0,0,0,0,0,0,0,0,0,0,0,0,0,0,0,0,0,0,0,0,0,0,0,0,0,0,0,-3.0189,-3.0189,0,-3.0215,-3.0215,-3.0216,-3.0106,-3.0103,-3.01,-3.0097,-3.0123,-3.0127,-3.0131,0,0,0,0,0,0,0,0,0,0,0,0,0,-3.0043,-3.0046,-3.0189,-3.0189,-3.019,-3.0215,-3.0215,-3.0216,-3.0107,-3.0103,-3.0099,-3.0095,-3.0122,-3.0126,-3.0131,0,0,0,0,0,0,0,0,0,0,0,0,0,-3.0092,-3.0048,-3.0189,-3.0138,-3.0134,-3.0215,-3.0215,-3.0216,-3.0107,-3.0103,-3.0098,-3.0093,-3.0121,-3.0126,-3.0131,-3.0263,0,0,-3.0148,-3.0151,0,0,0,0,0,0,0,0,-3.0089,-3.0097,-3.0145,-3.0142,-3.0137,-3.0152,-3.0174,-3.0232,-3.0109,-3.0118,-3.0097,-3.0091,-3.0137,-3.0141,-3.0156,-3.0264,-3.0265,-3.0149,-3.0152,-3.0155,-3.0156,0,0,0,0,0,0,0,-3.0086,-3.0095,-3.0199,-3.0146,-3.0141,-3.0114,-3.0115,-3.0184,-3.0154,-3.0116,-3.0108,-3.0113,-3.0134,-3.0151,-3.0156,-3.0265,-3.0149,-3.0154,-3.0157,-3.0159,-3.048,-3.0485,0,0,0,0,0,0,-3.0089,-3.0093,-3.0198,-3.02,-3.0101,-3.012,-3.0122,-3.0152,-3.0153,-3.0148,-3.0117,-3.0108,-3.0144,-3.015,-3.0157,-3.0309,-3.0155,-3.016,-3.0163,-3.0475,-3.0482,-3.0487,0,0,0,0,0,0,-3.0087,-3.01,-3.0197,-3.0145,-3.0155,-3.0128,-3.0163,-3.0155,-3.0173,-3.0154,-3.0147,-3.0141,-3.014,-3.0149,-3.0237,-3.0309,-3.0162,-3.0167,-3.0469,-3.0477,-3.0484,-3.0616,0,0,0,0,0,0,-3.0083,-3.0099,-3.0149,-3.0147,-3.0158,-3.0278,-3.0167,-3.0159,-3.0183,-3.0171,-3.0174,-3.017,-3.0137,-3.0229,-3.0242,-3.0314,-3.0172,-3.0463,-3.0473,-3.0482,-3.0606,-3.0628,-3.0647,0,0,0,0,0,-3.0078,-3.0186,-3.0152,-3.0166,-3.022,-3.0282,-3.0289,-3.0249,-3.0189,-3.0239,-3.0226,-3.017,-3.0299,-3.0239,-3.0253,-3.0327,-3.0458,-3.047,-3.0481,-3.0596,-3.0623,-3.0646,0,0,0,0,0,0,-3.0198,-3.0184,-3.0147,-3.0257,-3.0272,-3.0264,-3.0325,-3.0279,-3.0311,-3.0299,-3.0248,-3.025,-3.0346,-3.0345,-3.0279,-3.0453,-3.0368,-3.0383,-3.0451,-3.0476,-3.0496,-3.0494,-3.0176,0,0,0,0,0,-3.0237,-3.0289,-3.0274,-3.0372,-3.0381,-3.0352,-3.0378,-3.0346,-3.0359,-3.0365,-3.0358,-3.0373,-3.0416,-3.0446,-3.0485,-3.0605,-3.0604,-3.0663,-3.0683,-3.07,-3.0714,-3.0776,-3.0802,-3.0526,-3.0525,-3.0525,0,0,-3.0318,-3.0317,-3.0353,-3.0396,-3.0404,-3.0458,-3.0358,-3.042,-3.046,-3.0374,-3.0456,-3.0453,-3.0465,-3.057,-3.0615,-3.0572,-3.079,-3.0715,-3.0729,-3.0733,-3.0791,-3.0817,-3.084,-3.0533,-3.0532,-3.0531,0,0,-3.0494,-3.0499,-3.0581,-3.059,-3.0603,-3.0582,-3.0602,-3.0601,-3.0595,-3.0677,-3.0614,-3.066,-3.0737,-3.0748,-3.0764,-3.0944,-3.0893,-3.0958,-3.1066,-3.1127,-3.1149,-3.1168,-3.1231,-3.1255,-3.0971,-3.0972,-3.0972,0,-3.0593,-3.0673,-3.0629,-3.0695,-3.0715,-3.064,-3.0722,-3.0734,-3.0759,-3.0774,-3.0725,-3.0819,-3.0823,-3.0928,-3.0972,-3.0987,-3.1008,-3.0957,-3.1149,-3.1168,-3.1185,-3.1245,-3.1269,-3.098,-3.0979,-3.0978,-3.0977,0,-3.0794,-3.085,-3.0915,-3.0941,-3.0969,-3.1043,-3.1009,-3.1043,-3.1009,-3.0994,-3.1078,-3.1079,-3.1117,-3.1139,-3.1107,-3.124,-3.1213,-3.1158,-3.107,-3.122,-3.1275,-3.1298,-3.0991,-3.0988,-3.0986,-3.0984,0,0,-3.1046,-3.1046,-3.107,-3.1081,-3.1089,-3.1131,-3.1202,-3.1238,-3.1268,-3.1288,-3.1345,-3.1411,-3.136,-3.1378,-3.1346,-3.14,-3.1541,-3.1337,-3.1337,-3.1374,-3.1687,-3.1729,-3.1756,-3.1508,-3.1512,-3.1515,-3.1686,0,-3.1218,-3.1338,-3.13,-3.1421,-3.1472,-3.1401,-3.1462,-3.1474,-3.1462,-3.1503,-3.1489,-3.1536,-3.1465,-3.1476,-3.1526,-3.1513,-3.1603,-3.1501,-3.156,-3.1562,-3.1558,-3.1785,-3.1829,-3.199,-3.1707,-3.1711,-3.1714,0,-3.1434,-3.1462,-3.1589,-3.1588,-3.1608,-3.1663,-3.1693,-3.1734,-3.1745,-3.1732,-3.1753,-3.1709,-3.1777,-3.1691,-3.1784,-3.1715,-3.1737,-3.1735,-3.174,-3.1743,-3.1647,-3.1794,-3.204,-3.2065,-3.1748,-3.1745,-3.1742,0,-3.1604,-3.1674,-3.1758,-3.1769,-3.177,-3.1811,-3.1813,-3.182,-3.1844,-3.187,-3.1886,-3.192,-3.1939,-3.1966,-3.1933,-3.1873,-3.2031,-3.1941,-3.2021,-3.2023,-3.2057,-3.2056,-3.2311,-3.2073,-3.2073,-3.2072,-3.2072,0,-3.18,-3.188,-3.1834,-3.1886,-3.1974,-3.1929,-3.2017,-3.2011,-3.2017,-3.2066,-3.2007,-3.2054,-3.2008,-3.2051,-3.2025,-3.2106,-3.2115,-3.2106,-3.2098,-3.2111,-3.2112,-3.2124,-3.2112,-3.2079,-3.2077,-3.2076,-3.2075,0,-3.2005,-3.1977,-3.2064,-3.2058,-3.2058,-3.2123,-3.2117,-3.2165,-3.2148,-3.2211,-3.2223,-3.2197,-3.2245,-3.2214,-3.2262,-3.2245,-3.235,-3.2327,-3.2346,-3.234,-3.2422,-3.2414,-3.2693,-3.2726,-3.2468,-3.2471,-3.2473,0,-3.2131,-3.2191,-3.2191,-3.2219,-3.2225,-3.2272,-3.2297,-3.2255,-3.2283,-3.23,-3.2345,-3.2388,-3.2419,-3.2498,-3.2484,-3.252,-3.2497,-3.2592,-3.2502,-3.2513,-3.2497,-3.2494,-3.2499,-3.261,-3.2613,-3.2616,-3.2618,0,-3.2357,-3.2341,-3.2378,-3.2412,-3.2442,-3.2467,-3.2486,-3.2513,-3.247,-3.2505,-3.2552,-3.2577,-3.2626,-3.2668,-3.2699,-3.27,-3.2652,-3.2646,-3.2666,-3.268,-3.2688,-3.2684,-3.2395,-3.264,-3.2638,-3.2636,-3.2635,-3.2634,-3.2526,-3.2576,-3.2583,-3.2627,-3.2637,-3.2656,-3.27,-3.2689,-3.2728,-3.2764,-3.2737,-3.2794,-3.2803,-3.2838,-3.2846,-3.289,-3.2851,-3.2881,-3.2888,-3.2896,-3.2907,-3.2682,-3.2895,-3.2894,-3.2894,-3.2893,-3.2893,0,-3.2749,-3.275,-3.2791,-3.2819,-3.2854,-3.2805,-3.2824,-3.2856,-3.2906,-3.2919,-3.2951,-3.3006,-3.3047,-3.3035,-3.3071,-3.3108,-3.3087,-3.3119,-3.3116,-3.3117,-3.294,-3.2918,-3.3136,-3.3136,-3.3136,-3.3136,-3.3136,-3.3136,-3.2869,-3.295,-3.2934,-3.3019,-3.302,-3.3075,-3.3089,-3.3107,-3.3116,-3.318,-3.3213,-3.3206,-3.3208,-3.3244,-3.328,-3.3275,-3.3291,-3.3331,-3.3319,-3.3153,-3.3129,-3.3106,-3.3086,-3.3335,-3.3335,-3.3492,-3.3493,-3.3494]},{"header":{"parameterUnit":"m.s-1","parameterCategory":1,"la1":30.2991,"la2":30.254,"lo1":-89.0895,"lo2":-89.0444,"dy":0.0017,"dx":0.0017,"nx":28,"ny":28,"refTime":"2024-12-04T09:00:00:Z","depth":0,"parameterNumber":3,"parameterNumberName":"V-component_of_WINDS"},"data":[0,0,0,0,0,0,0,0,0,0,0,0,0,0,0,0,0,0,0,0,0,0,0,0,0,0,0,0,0,0,0,0,0,0,0,0,0,0,0,0,0,0,0,0,0,0,0,0,0,0,0,0,0,0,0,0,0,0,-1.794,-1.794,0,-1.7992,-1.7993,-1.7993,-1.8028,-1.8028,-1.8028,-1.8029,-1.808,-1.8081,-1.8082,0,0,0,0,0,0,0,0,0,0,0,0,0,-1.7867,-1.7868,-1.794,-1.794,-1.7941,-1.7992,-1.7993,-1.7993,-1.8028,-1.8028,-1.8028,-1.8029,-1.808,-1.8081,-1.8082,0,0,0,0,0,0,0,0,0,0,0,0,0,-1.7907,-1.7868,-1.794,-1.7964,-1.7967,-1.7992,-1.7993,-1.7994,-1.8028,-1.8028,-1.8029,-1.8029,-1.8079,-1.8081,-1.8082,-1.8086,0,0,-1.8088,-1.8088,0,0,0,0,0,0,0,0,-1.7904,-1.7909,-1.796,-1.7963,-1.7966,-1.8004,-1.7986,-1.8024,-1.8028,-1.8005,-1.8029,-1.8029,-1.8054,-1.8058,-1.8067,-1.8088,-1.809,-1.8088,-1.8089,-1.809,-1.809,0,0,0,0,0,0,0,-1.7902,-1.7907,-1.796,-1.7961,-1.7964,-1.7972,-1.7978,-1.7993,-1.8027,-1.8007,-1.8009,-1.8015,-1.8056,-1.8065,-1.8068,-1.8091,-1.8088,-1.8089,-1.809,-1.8091,-1.8116,-1.8116,0,0,0,0,0,0,-1.7895,-1.7905,-1.7959,-1.7962,-1.7936,-1.7973,-1.798,-1.7991,-1.8027,-1.8032,-1.8015,-1.8017,-1.8062,-1.8066,-1.807,-1.8076,-1.809,-1.8091,-1.8092,-1.8117,-1.8116,-1.8116,0,0,0,0,0,0,-1.7894,-1.79,-1.7957,-1.7934,-1.7942,-1.7974,-1.7987,-1.7992,-1.8002,-1.8033,-1.8039,-1.8019,-1.8063,-1.8068,-1.8082,-1.8078,-1.8092,-1.8094,-1.8117,-1.8116,-1.8116,-1.8086,0,0,0,0,0,0,-1.7891,-1.7899,-1.7901,-1.7934,-1.7943,-1.7968,-1.7986,-1.7993,-1.8005,-1.8008,-1.8038,-1.8043,-1.8063,-1.8079,-1.8083,-1.808,-1.8095,-1.8117,-1.8117,-1.8116,-1.8088,-1.8085,-1.8083,0,0,0,0,0,-1.7889,-1.7891,-1.7901,-1.7908,-1.7947,-1.7968,-1.7973,-1.7996,-1.8004,-1.8006,-1.8026,-1.8042,-1.8078,-1.808,-1.8085,-1.8083,-1.8118,-1.8117,-1.8116,-1.8089,-1.8086,-1.8083,0,0,0,0,0,0,-1.7856,-1.7896,-1.7908,-1.7921,-1.794,-1.7973,-1.7977,-1.7992,-1.801,-1.8011,-1.8039,-1.8046,-1.8056,-1.8071,-1.8073,-1.8087,-1.8099,-1.81,-1.8077,-1.8074,-1.8071,-1.8067,-1.8096,0,0,0,0,0,-1.7851,-1.7865,-1.7899,-1.7907,-1.7916,-1.7944,-1.7954,-1.7971,-1.7992,-1.8001,-1.8022,-1.8041,-1.8057,-1.8066,-1.8082,-1.809,-1.8097,-1.8091,-1.8089,-1.8086,-1.8086,-1.809,-1.8087,-1.8113,-1.8113,-1.8113,0,0,-1.784,-1.7863,-1.787,-1.7901,-1.7918,-1.7931,-1.7951,-1.7965,-1.7975,-1.8003,-1.8017,-1.8033,-1.8056,-1.8067,-1.8072,-1.8079,-1.808,-1.8085,-1.8083,-1.8084,-1.8089,-1.8086,-1.8084,-1.8113,-1.8113,-1.8113,0,0,-1.7825,-1.7845,-1.7853,-1.787,-1.7896,-1.7915,-1.7917,-1.7947,-1.7959,-1.7974,-1.7995,-1.8006,-1.8033,-1.8048,-1.806,-1.805,-1.8065,-1.8055,-1.804,-1.8044,-1.8042,-1.804,-1.8035,-1.8033,-1.8054,-1.8054,-1.8054,0,-1.7808,-1.7829,-1.7856,-1.7867,-1.788,-1.7906,-1.7914,-1.7929,-1.7959,-1.7966,-1.7974,-1.8007,-1.8024,-1.8038,-1.8036,-1.8044,-1.8046,-1.8051,-1.804,-1.8038,-1.8037,-1.8033,-1.8031,-1.8053,-1.8053,-1.8053,-1.8053,0,-1.7806,-1.782,-1.7824,-1.7852,-1.7865,-1.7874,-1.7901,-1.791,-1.7926,-1.7943,-1.7957,-1.7979,-1.7999,-1.8004,-1.8019,-1.802,-1.8023,-1.8035,-1.8048,-1.8033,-1.8029,-1.8028,-1.805,-1.8051,-1.8051,-1.8052,0,0,-1.7773,-1.7815,-1.7816,-1.7828,-1.7859,-1.787,-1.788,-1.7901,-1.7908,-1.7927,-1.7936,-1.7957,-1.7968,-1.7981,-1.7997,-1.8,-1.799,-1.8012,-1.8013,-1.8006,-1.799,-1.798,-1.7978,-1.8,-1.8,-1.8,-1.7988,0,-1.7763,-1.7784,-1.7807,-1.7819,-1.7832,-1.7857,-1.7866,-1.7884,-1.7901,-1.7913,-1.7931,-1.7945,-1.796,-1.7967,-1.7971,-1.799,-1.7987,-1.7992,-1.8007,-1.8007,-1.7999,-1.7977,-1.7966,-1.7954,-1.7987,-1.7987,-1.7986,0,-1.7754,-1.7772,-1.7785,-1.7813,-1.7819,-1.7827,-1.7847,-1.7859,-1.788,-1.7892,-1.7906,-1.7924,-1.7935,-1.7946,-1.7961,-1.7963,-1.7971,-1.7981,-1.7981,-1.7983,-1.7995,-1.7976,-1.7951,-1.7948,-1.7985,-1.7985,-1.7985,0,-1.7727,-1.7755,-1.7766,-1.7776,-1.781,-1.7814,-1.7828,-1.785,-1.786,-1.7877,-1.7884,-1.7902,-1.7911,-1.7924,-1.7946,-1.7953,-1.7958,-1.7972,-1.7967,-1.7966,-1.7966,-1.7965,-1.794,-1.7972,-1.7972,-1.7973,-1.7973,0,-1.7712,-1.7719,-1.7754,-1.7761,-1.7769,-1.7795,-1.7802,-1.7818,-1.7837,-1.7847,-1.7869,-1.7878,-1.7906,-1.7918,-1.7935,-1.7943,-1.7948,-1.7957,-1.7961,-1.7954,-1.7953,-1.7959,-1.796,-1.7972,-1.7972,-1.7972,-1.7972,0,-1.7684,-1.7708,-1.7722,-1.7752,-1.7759,-1.7764,-1.7789,-1.7796,-1.7814,-1.7825,-1.7829,-1.7857,-1.7871,-1.7894,-1.7915,-1.7927,-1.7932,-1.794,-1.7924,-1.7927,-1.792,-1.792,-1.7897,-1.7894,-1.7929,-1.7929,-1.7929,0,-1.7673,-1.7679,-1.7709,-1.7717,-1.773,-1.7743,-1.7754,-1.7779,-1.7789,-1.7813,-1.7817,-1.7833,-1.7847,-1.7869,-1.789,-1.7906,-1.7914,-1.7904,-1.7916,-1.7909,-1.7912,-1.7911,-1.7911,-1.7901,-1.7901,-1.79,-1.79,0,-1.765,-1.7661,-1.7676,-1.7694,-1.7706,-1.7722,-1.7738,-1.7744,-1.7772,-1.7782,-1.7797,-1.7808,-1.783,-1.7845,-1.7864,-1.7877,-1.7893,-1.7896,-1.7896,-1.7888,-1.7879,-1.7882,-1.7916,-1.7897,-1.7897,-1.7897,-1.7897,-1.7897,-1.7629,-1.7635,-1.7657,-1.7672,-1.7687,-1.7702,-1.7709,-1.7728,-1.7741,-1.776,-1.7774,-1.7788,-1.7808,-1.7835,-1.7847,-1.7858,-1.7865,-1.7864,-1.7864,-1.7863,-1.786,-1.7878,-1.7861,-1.7861,-1.7861,-1.7862,-1.7862,0,-1.7606,-1.7621,-1.7635,-1.7657,-1.7669,-1.7683,-1.7702,-1.771,-1.7722,-1.774,-1.7753,-1.777,-1.7784,-1.7806,-1.7822,-1.7826,-1.7834,-1.783,-1.7829,-1.7831,-1.7853,-1.7851,-1.7823,-1.7823,-1.7823,-1.7823,-1.7823,-1.7823,-1.7595,-1.7605,-1.7619,-1.7636,-1.7651,-1.7665,-1.7674,-1.7687,-1.7701,-1.7719,-1.7731,-1.7746,-1.7765,-1.7782,-1.7796,-1.7802,-1.7806,-1.7799,-1.7807,-1.7827,-1.783,-1.7833,-1.7832,-1.78,-1.78,-1.7784,-1.7784,-1.7784]}]]